Regional Weather Roundup
Issued by NWS

Home | Current Version | Previous Version | Text Only | Print | Product List | Glossary Off
Versions: 1 2 3 4 5 6 7 8 9 10 11 12 13 14 15 16 17 18 19 20 21 22 23 24 25 26 27 28 29 30 31 32 33 34 35 36 37 38 39 40 41 42 43 44 45 46 47 48 49 50

000
ASUS43 KDTX 242310
RWRMI
MICHIGAN HOURLY REGIONAL WEATHER ROUNDUP
NATIONAL WEATHER SERVICE DETROIT/PONTIAC MI
600 PM EST SAT FEB 24 2018

NOTE: "FAIR" INDICATES FEW OR NO CLOUDS BELOW 12,000 FEET WITH NO
SIGNIFICANT WEATHER AND/OR OBSTRUCTION TO VISIBILITY.

MIZ047>049-052>055-059>063-066>070-074>076-081>083-250000-
SOUTHEAST LOWER MICHIGAN

CITY           SKY/WX    TMP DP  RH WIND       PRES   REMARKS
ADRIAN         CLOUDY    38  31  76 E15       30.02F WCI  29
ALMA           CLOUDY    36  32  87 E16       30.05F WCI  26
ANN ARBOR      CLOUDY    38  32  79 NE14G21   30.02F WCI  30
BAD AXE        MOCLDY    31  26  81 E6        30.12S WCI  25
CARO           CLOUDY    33  28  79 E9        30.09F WCI  26
DETROIT CITY   MOCLDY    37  31  78 E7        30.07F WCI  32
DETROIT        CLOUDY    40  32  73 E10       30.06F WCI  33
FLINT          CLOUDY    36  29  75 E15       30.06F WCI  27
GROSSE ILE     CLOUDY    39  32  75 E13G20    30.05F WCI  32
HILLSDALE      CLOUDY    36  32  87 E13G18    29.97F WCI  27
HOWELL         CLOUDY    37  32  79 E7        30.03F WCI  32

CITY           SKY/WX    TMP DP  RH WIND       PRES   REMARKS
JACKSON        CLOUDY    39  33  79 E14       30.00F WCI  31
LAMBERTVILLE   CLOUDY    36  31  82 E13G20    30.04F WCI  27
LANSING        MOCLDY    38  31  76 E14       30.01F WCI  30
LAPEER         CLOUDY    35  29  79 E9        30.09S WCI  28
MASON          CLOUDY    40  30  68 E8        30.01F WCI  34
MONROE         CLOUDY    37  31  78 E12G17    30.04F WCI  29
MT. CLEMENS    CLOUDY    37  36  95 NE10      30.07F WCI  30
PONTIAC        CLOUDY    37  30  75 E9        30.04F WCI  30
PORT HOPE        N/A     31  26  82 E12       30.11F WCI  22
PORT HURON     CLOUDY    34  28  80 NE7       30.12R WCI  28
TRI CITIES     CLOUDY    35  29  78 E14       30.08F WCI  26
MIDLAND        CLOUDY    33  28  82 E12       30.09S WCI  24
TROY           CLOUDY    38  32  78 E10       30.09F WCI  31
SAGINAW HB     CLOUDY    34  30  86 E12       30.09S WCI  25
$$
MIZ043>046-050>051-056>058-064>065-071>073-077>080-250000-
SOUTHWEST LOWER MICHIGAN

CITY           SKY/WX    TMP DP  RH WIND       PRES   REMARKS
BATTLE CREEK   CLOUDY    41  33  73 E14       29.96F
BENTON HARBOR  CLOUDY    42  35  76 E15       29.90F
BIG RAPIDS     CLOUDY    34  28  77 E15       29.99F WCI  24
COLDWATER      CLOUDY    40  35  83 E12       29.96F WCI  33
FREMONT        CLOUDY    36  27  68 E14G24    29.98R WCI  27
HOLLAND        MOCLDY    42  33  70 SE20      29.95R
GRAND RAPIDS   CLOUDY    39  33  79 E15G25    29.95F WCI  31
IONIA          CLOUDY    37  32  81 E16       29.98F WCI  28
KALAMAZOO      CLOUDY    42  34  73 E9G21     29.95F
LUDINGTON      CLOUDY    38  29  70 E15G21    29.95F WCI  30
MARSHALL       CLOUDY    39  33  80 E12G18    29.97F WCI  32
MOUNT PLEASANT CLOUDY    35  28  75 E12       30.05F WCI  26
MUSKEGON       CLOUDY    41  31  67 E15       29.96R
SOUTH HAVEN    CLOUDY    43  36  76 E16       29.92F
$$
MIZ016>042-250000-
NORTHERN LOWER MICHIGAN

CITY           SKY/WX    TMP DP  RH WIND       PRES   REMARKS
ALPENA         CLOUDY    31  25  78 E13       30.12F WCI  21
BEAVER ISLAND  FAIR      32  26  77 E10       30.05F WCI  24
BELLAIRE       FAIR      40  27  59 E5        30.00F
CADILLAC       CLOUDY    33  26  77 SE14      29.99R WCI  23
CHARLEVOIX     FAIR      37  25  62 E8        30.05F WCI  31
FRANKFORT      CLOUDY    43  27  52 E7        29.95F
GAYLORD        FAIR      35  24  64 E7        30.00F WCI  29
GRAYLING       CLOUDY    34  26  72 SE9       30.02F WCI  27
HARBOR SPRINGS FAIR      34  24  65 E14       30.05F WCI  25
HOUGHTON LAKE  CLOUDY    32  24  72 SE9       30.04F WCI  24
MANISTEE       CLOUDY    39  27  62 E9G20     29.95F WCI  33
OSCODA         CLOUDY    31  23  71 E7        30.12F WCI  25
PELLSTON       FAIR      33  24  69 E14       30.06F WCI  23
ROGERS CITY    FAIR      31  24  74 E12       30.11F WCI  22
TRAVERSE CITY  CLOUDY    41  26  55 SE8       29.99F
$$
MIZ007>008-015-250000-
EASTERN UPPER MICHIGAN

CITY           SKY/WX    TMP DP  RH WIND       PRES   REMARKS
KINROSS        FAIR      31  21  66 SE10      30.10S WCI  22
MACKINAC ISLAN FAIR      31  23  74 E13G18    30.08F WCI  21
NEWBERRY       FAIR      32  20  62 S8        30.06R WCI  25
S. S. MARIE    FAIR      34  20  56 SE7       30.09F WCI  28
MUNISING         N/A     35  21  56 S9        30.02F WCI  28
$$
MIZ004>006-011>014-085-250000-
CENTRAL UPPER MICHIGAN

CITY           SKY/WX    TMP DP  RH WIND       PRES   REMARKS
MANISTIQUE     FAIR      31  22  69 E7        30.04F WCI  24
ESCANABA       MOCLDY    31  24  75 E10       30.00F WCI  22
MENOMINEE      CLOUDY    31  27  85 E14       29.96F WCI  21
SAWYER-GWINN   MOCLDY    34  19  55 MISG      29.97F
$$
MIZ001>003-009>011-084-250000-
WESTERN UPPER MICHIGAN

CITY           SKY/WX    TMP DP  RH WIND       PRES   REMARKS
IRON MOUNTAIN  CLOUDY    31  21  66 E9        29.92F WCI  23
HOUGHTON       FAIR      28  20  71 E12       29.96F WCI  18
COPPER HARBOR    N/A     30  21  69 S6        29.98F WCI  24
IRONWOOD       CLOUDY    33  20  58 E12       29.85F WCI  24
$$

ABBREVIATIONS USED IN REMARKS
   TC - TEMPERATURE IN CELSIUS
  WCI - WIND CHILL INDEX
   HX - HEAT INDEX
  VSB - VISIBILITY




USA.gov is the U.S. government's official web portal to all federal, state and local government web resources and services.